timestamp,wind_dir_avg,wind_spd_avg,wind_spd_max_dir,wind_spd_gust,battery_voltage,lat,long
2023-12-13 00:04:00+00:00,267.0,15.79,274.0,18.41,12.33,47.59359,-54.27349
2023-12-13 00:14:00+00:00,264.0,12.77,266.0,18.28,12.33,47.59359,-54.27349
2023-12-13 00:24:00+00:00,262.0,10.22,253.0,13.61,12.33,47.59359,-54.27349
2023-12-13 00:34:00+00:00,255.0,9.16,251.0,12.23,12.33,47.59359,-54.27349
2023-12-13 00:44:00+00:00,260.0,13.2,264.0,18.25,12.33,47.59359,-54.27349
2023-12-13 00:54:00+00:00,253.0,8.33,245.0,9.55,12.33,47.59359,-54.27349
2023-12-13 01:04:00+00:00,259.0,8.58,260.0,10.35,12.33,47.59359,-54.27349
2023-12-13 01:14:00+00:00,256.0,9.95,254.0,11.9,12.33,47.59359,-54.27349
2023-12-13 01:24:00+00:00,258.0,10.64,253.0,12.67,12.33,47.59359,-54.27349
2023-12-13 01:34:00+00:00,266.0,10.34,261.0,17.07,12.33,47.59359,-54.27349
2023-12-13 01:44:00+00:00,268.0,9.84,276.0,11.87,12.33,47.59359,-54.27349
2023-12-13 01:54:00+00:00,259.0,10.44,262.0,11.76,12.33,47.59359,-54.27349
2023-12-13 02:04:00+00:00,260.0,15.97,263.0,18.8,12.33,47.59359,-54.27349
2023-12-13 02:14:00+00:00,255.0,15.45,251.0,19.1,12.25,47.59359,-54.27349
2023-12-13 02:24:00+00:00,270.0,13.25,270.0,18.02,12.25,47.59359,-54.27349
2023-12-13 02:34:00+00:00,259.0,12.04,260.0,17.86,12.25,47.59359,-54.27349
2023-12-13 02:44:00+00:00,261.0,10.58,259.0,12.14,12.25,47.59359,-54.27349
2023-12-13 02:54:00+00:00,254.0,10.35,261.0,11.85,12.25,47.59359,-54.27349
2023-12-13 03:04:00+00:00,254.0,10.69,251.0,17.75,12.25,47.59359,-54.27349
2023-12-13 03:14:00+00:00,250.0,11.0,254.0,12.38,12.25,47.59359,-54.27349
2023-12-13 03:24:00+00:00,255.0,11.19,252.0,12.71,12.25,47.59359,-54.27349
2023-12-13 03:34:00+00:00,255.0,9.58,247.0,10.6,12.25,47.59359,-54.27349
2023-12-13 03:44:00+00:00,257.0,9.98,253.0,11.23,12.25,47.59359,-54.27349
2023-12-13 03:54:00+00:00,257.0,11.71,257.0,14.26,12.25,47.59359,-54.27349
2023-12-13 04:04:00+00:00,263.0,14.68,272.0,18.28,12.25,47.59359,-54.27349
2023-12-13 04:14:00+00:00,277.0,12.42,274.0,17.31,12.25,47.59359,-54.27349
2023-12-13 04:24:00+00:00,267.0,12.27,269.0,17.86,12.25,47.59359,-54.27349
2023-12-13 04:34:00+00:00,274.0,10.1,269.0,11.88,12.25,47.59359,-54.27349
2023-12-13 04:44:00+00:00,263.0,10.86,260.0,12.15,12.25,47.59359,-54.27349
2023-12-13 04:54:00+00:00,264.0,11.03,265.0,14.23,12.25,47.59359,-54.27349
2023-12-13 05:04:00+00:00,261.0,11.76,260.0,16.2,12.25,47.59359,-54.27349
2023-12-13 05:14:00+00:00,264.0,12.01,266.0,17.27,12.25,47.59359,-54.27349
2023-12-13 05:24:00+00:00,269.0,10.4,270.0,11.77,12.25,47.59359,-54.27349
2023-12-13 05:34:00+00:00,277.0,8.39,286.0,10.42,12.25,47.59359,-54.27349
2023-12-13 05:44:00+00:00,282.0,8.61,279.0,10.86,12.25,47.59359,-54.27349
2023-12-13 05:54:00+00:00,269.0,9.43,267.0,10.45,12.25,47.59359,-54.27349
2023-12-13 06:04:00+00:00,289.0,7.97,283.0,10.98,12.25,47.59359,-54.27349
2023-12-13 06:14:00+00:00,282.0,4.55,275.0,6.74,12.17,47.59359,-54.27349
2023-12-13 06:24:00+00:00,270.0,3.63,274.0,4.09,12.17,47.59359,-54.27349
2023-12-13 06:34:00+00:00,258.0,7.02,262.0,10.3,12.17,47.59359,-54.27349
2023-12-13 06:44:00+00:00,244.0,8.79,233.0,10.78,12.17,47.59359,-54.27349
2023-12-13 06:54:00+00:00,252.0,9.07,249.0,10.56,12.17,47.59359,-54.27349
2023-12-13 07:04:00+00:00,257.0,8.5,258.0,9.59,12.17,47.59359,-54.27349
2023-12-13 07:14:00+00:00,257.0,7.61,252.0,8.81,12.17,47.59359,-54.27349
2023-12-13 07:24:00+00:00,249.0,9.05,243.0,11.15,12.17,47.59359,-54.27349
2023-12-13 07:34:00+00:00,248.0,8.41,252.0,9.37,12.17,47.59359,-54.27349
2023-12-13 07:44:00+00:00,244.0,8.35,248.0,9.93,12.17,47.59359,-54.27349
2023-12-13 07:54:00+00:00,242.0,8.4,229.0,10.02,12.17,47.59359,-54.27349
2023-12-13 08:04:00+00:00,241.0,10.28,234.0,12.14,12.17,47.59359,-54.27349
2023-12-13 08:14:00+00:00,248.0,9.82,242.0,11.42,12.17,47.59359,-54.27349
2023-12-13 08:24:00+00:00,254.0,8.92,252.0,10.4,12.17,47.59359,-54.27349
2023-12-13 08:34:00+00:00,260.0,9.56,252.0,11.79,12.17,47.59359,-54.27349
2023-12-13 08:44:00+00:00,235.0,11.58,236.0,12.73,12.17,47.59359,-54.27349
2023-12-13 08:54:00+00:00,240.0,9.89,239.0,11.15,12.17,47.59359,-54.27349
2023-12-13 09:04:00+00:00,235.0,8.56,241.0,10.29,12.17,47.59359,-54.27349
2023-12-13 09:14:00+00:00,243.0,9.5,244.0,11.36,12.17,47.59359,-54.27349
2023-12-13 09:24:00+00:00,237.0,8.48,240.0,9.85,12.17,47.59359,-54.27349
2023-12-13 09:34:00+00:00,242.0,8.28,239.0,9.96,12.17,47.59359,-54.27349
2023-12-13 09:44:00+00:00,250.0,7.73,253.0,8.4,12.17,47.59359,-54.27349
2023-12-13 09:54:00+00:00,243.0,9.96,246.0,11.63,12.17,47.59359,-54.27349
2023-12-13 10:04:00+00:00,236.0,9.7,231.0,11.04,12.17,47.59359,-54.27349
2023-12-13 10:14:00+00:00,237.0,8.65,241.0,9.47,12.17,47.59359,-54.27349
2023-12-13 10:24:00+00:00,233.0,9.21,232.0,10.41,12.17,47.59359,-54.27349
2023-12-13 10:34:00+00:00,244.0,8.84,242.0,9.82,12.17,47.59359,-54.27349
2023-12-13 10:44:00+00:00,244.0,10.4,241.0,11.9,12.17,47.59359,-54.27349
2023-12-13 10:54:00+00:00,256.0,9.11,264.0,10.57,12.17,47.59359,-54.27349
2023-12-13 11:04:00+00:00,244.0,8.4,238.0,9.96,12.17,47.59359,-54.27349
2023-12-13 11:14:00+00:00,243.0,11.0,243.0,12.32,12.09,47.59359,-54.27349
2023-12-13 11:24:00+00:00,232.0,10.15,229.0,12.17,12.09,47.59359,-54.27349
2023-12-13 11:34:00+00:00,240.0,8.9,234.0,9.65,12.09,47.59359,-54.27349
2023-12-13 11:44:00+00:00,236.0,8.83,233.0,10.47,12.09,47.59359,-54.27349
2023-12-13 11:54:00+00:00,237.0,8.44,235.0,9.71,12.09,47.59359,-54.27349
2023-12-13 12:04:00+00:00,233.0,7.93,239.0,9.38,12.09,47.59359,-54.27349
2023-12-13 12:14:00+00:00,232.0,6.59,233.0,8.54,12.17,47.59359,-54.27349
2023-12-13 12:24:00+00:00,229.0,7.02,232.0,8.7,12.17,47.59359,-54.27349
2023-12-13 12:34:00+00:00,229.0,7.77,231.0,9.0,12.17,47.59359,-54.27349
2023-12-13 12:44:00+00:00,225.0,8.7,218.0,10.15,12.17,47.59359,-54.27349
2023-12-13 12:54:00+00:00,230.0,8.25,232.0,9.57,12.17,47.59359,-54.27349
2023-12-13 13:04:00+00:00,226.0,8.7,219.0,10.54,12.17,47.59359,-54.27349
2023-12-13 13:14:00+00:00,236.0,8.75,236.0,10.06,14.48,47.59359,-54.27349
2023-12-13 13:24:00+00:00,232.0,10.07,232.0,12.09,14.48,47.59359,-54.27349
2023-12-13 13:34:00+00:00,241.0,8.62,242.0,10.2,14.48,47.59359,-54.27349
2023-12-13 13:44:00+00:00,230.0,10.04,229.0,11.22,14.48,47.59359,-54.27349
2023-12-13 13:54:00+00:00,238.0,10.75,234.0,12.14,14.48,47.59359,-54.27349
2023-12-13 14:04:00+00:00,235.0,10.46,236.0,12.36,14.48,47.59359,-54.27349
2023-12-13 14:14:00+00:00,231.0,8.32,238.0,9.75,13.6,47.59359,-54.27349
2023-12-13 14:24:00+00:00,231.0,8.1,232.0,9.73,13.6,47.59359,-54.27349
2023-12-13 14:34:00+00:00,229.0,8.25,227.0,9.73,13.6,47.59359,-54.27349
2023-12-13 14:44:00+00:00,234.0,8.55,236.0,9.69,13.6,47.59359,-54.27349
2023-12-13 14:54:00+00:00,239.0,8.15,250.0,10.55,13.6,47.59359,-54.27349
2023-12-13 15:04:00+00:00,229.0,8.24,224.0,9.51,13.6,47.59359,-54.27349
2023-12-13 15:14:00+00:00,230.0,9.45,231.0,11.33,13.68,47.59359,-54.27349
2023-12-13 15:24:00+00:00,234.0,9.13,231.0,10.15,13.68,47.59359,-54.27349
2023-12-13 15:34:00+00:00,239.0,10.45,250.0,12.06,13.68,47.59359,-54.27349
2023-12-13 15:44:00+00:00,237.0,9.68,242.0,11.71,13.68,47.59359,-54.27349
2023-12-13 15:54:00+00:00,223.0,8.26,229.0,9.84,13.68,47.59359,-54.27349
2023-12-13 16:04:00+00:00,228.0,8.58,230.0,10.33,13.68,47.59359,-54.27349
2023-12-13 16:14:00+00:00,216.0,8.68,218.0,10.08,13.6,47.59359,-54.27349
2023-12-13 16:24:00+00:00,217.0,10.52,218.0,12.43,13.6,47.59359,-54.27349
2023-12-13 16:34:00+00:00,235.0,10.53,232.0,11.59,13.6,47.59359,-54.27349
2023-12-13 16:44:00+00:00,233.0,8.4,231.0,9.39,13.6,47.59359,-54.27349
2023-12-13 16:54:00+00:00,228.0,8.98,216.0,11.46,13.6,47.59359,-54.27349
2023-12-13 17:04:00+00:00,227.0,8.54,221.0,9.63,13.6,47.59359,-54.27349
2023-12-13 17:14:00+00:00,230.0,8.36,243.0,9.58,13.44,47.59359,-54.27349
2023-12-13 17:24:00+00:00,226.0,9.35,223.0,11.62,13.44,47.59359,-54.27349
2023-12-13 17:34:00+00:00,243.0,10.67,241.0,12.07,13.44,47.59359,-54.27349
2023-12-13 17:44:00+00:00,237.0,9.51,233.0,10.96,13.44,47.59359,-54.27349
2023-12-13 17:54:00+00:00,230.0,10.24,231.0,11.2,13.44,47.59359,-54.27349
2023-12-13 18:04:00+00:00,230.0,10.03,241.0,11.65,13.44,47.59359,-54.27349
2023-12-13 18:14:00+00:00,234.0,11.62,237.0,13.59,13.76,47.59359,-54.27349
2023-12-13 18:24:00+00:00,229.0,11.6,227.0,13.24,13.76,47.59359,-54.27349
2023-12-13 18:34:00+00:00,230.0,9.41,240.0,10.84,13.76,47.59359,-54.27349
2023-12-13 18:44:00+00:00,229.0,9.94,234.0,11.46,13.76,47.59359,-54.27349
2023-12-13 18:54:00+00:00,231.0,10.14,229.0,12.11,13.76,47.59359,-54.27349
2023-12-13 19:04:00+00:00,230.0,10.98,231.0,12.1,13.76,47.59359,-54.27349
2023-12-13 19:14:00+00:00,228.0,9.0,230.0,11.96,13.37,47.59359,-54.27349
2023-12-13 19:24:00+00:00,231.0,10.27,230.0,11.66,13.37,47.59359,-54.27349
2023-12-13 19:34:00+00:00,231.0,9.4,228.0,11.4,13.37,47.59359,-54.27349
2023-12-13 19:44:00+00:00,224.0,8.69,225.0,10.35,13.37,47.59359,-54.27349
2023-12-13 19:54:00+00:00,224.0,8.2,221.0,9.41,13.37,47.59359,-54.27349
2023-12-13 20:04:00+00:00,225.0,8.1,216.0,9.63,13.37,47.59359,-54.27349
2023-12-13 20:14:00+00:00,226.0,7.23,231.0,8.86,12.65,47.59359,-54.27349
2023-12-13 20:24:00+00:00,230.0,7.37,226.0,8.72,12.65,47.59359,-54.27349
2023-12-13 20:34:00+00:00,227.0,8.4,222.0,9.83,12.65,47.59359,-54.27349
2023-12-13 20:44:00+00:00,228.0,8.7,230.0,10.31,12.65,47.59359,-54.27349
2023-12-13 20:54:00+00:00,228.0,8.21,227.0,9.8,12.65,47.59359,-54.27349
2023-12-13 21:04:00+00:00,232.0,9.5,240.0,12.08,12.65,47.59359,-54.27349
2023-12-13 21:14:00+00:00,231.0,10.02,235.0,12.18,12.41,47.59359,-54.27349
2023-12-13 21:24:00+00:00,224.0,9.58,219.0,11.86,12.41,47.59359,-54.27349
2023-12-13 21:34:00+00:00,225.0,9.78,229.0,11.16,12.41,47.59359,-54.27349
2023-12-13 21:44:00+00:00,222.0,10.5,222.0,11.93,12.41,47.59359,-54.27349
2023-12-13 21:54:00+00:00,219.0,10.17,220.0,10.95,12.41,47.59359,-54.27349
2023-12-13 22:04:00+00:00,229.0,10.75,233.0,13.8,12.41,47.59359,-54.27349
2023-12-13 22:14:00+00:00,228.0,7.4,232.0,8.85,12.41,47.59359,-54.27349
2023-12-13 22:24:00+00:00,234.0,9.24,233.0,11.3,12.41,47.59359,-54.27349
2023-12-13 22:34:00+00:00,230.0,9.41,230.0,10.92,12.41,47.59359,-54.27349
2023-12-13 22:44:00+00:00,225.0,9.98,218.0,12.17,12.41,47.59359,-54.27349
2023-12-13 22:54:00+00:00,223.0,9.56,224.0,10.34,12.41,47.59359,-54.27349
2023-12-13 23:04:00+00:00,221.0,9.32,219.0,10.59,12.41,47.59359,-54.27349
2023-12-13 23:14:00+00:00,221.0,9.97,220.0,11.37,12.41,47.59359,-54.27349
2023-12-13 23:24:00+00:00,220.0,10.01,222.0,12.11,12.41,47.59359,-54.27349
2023-12-13 23:34:00+00:00,224.0,9.32,218.0,11.02,12.41,47.59359,-54.27349
2023-12-13 23:44:00+00:00,223.0,10.34,224.0,11.26,12.41,47.59359,-54.27349
2023-12-13 23:54:00+00:00,223.0,10.18,230.0,12.01,12.41,47.59359,-54.27349
